Starlink 31899

operational
NORAD ID: 59850 Int'l Des: 2024-097 Owner: SPXS Country: US Constellation: starlink
LEOCIRCULAR

About Starlink 31899

Description loading...

Live Position

Loading 3D Globe...

Upcoming Passes

Altitude History

Altitude vs Time

uPlot chart will show altitude changes over time

Two-Line Element Set

1 59850U 24097R 26034.27057987 -.00000340 00000-0 -28280-5 0 9993
2 59850 42.9982 108.6686 0001554 279.6653 80.4023 15.27585275 96651
Epoch: Feb 3, 2026 • Age: 25 hours

Current Status

Altitude 490.6 km
Velocity 7.62 km/s
Sub-Earth Point -30.24°S, 81.53°E
Launch Date May 23, 2024
Age 1.7 years
Type internet

Technical Details

Classification Payload
Mass 730.00 kg
Dry Mass 700.00 kg
Total Mass 730.00 kg
Length 0.30 m
Diameter 4.10 m
Span 29.00 m
Shape Box + pan
Manufacturer SPXS
Bus Type Starlink V2M
Phase Status In Orbit
Owner/State SPXS/US

Large Constellations

Loading constellations...